This is the latest recevied weather packets stored in our database for station/object SM6LNJ-13. If no packets are shown the sender has not sent any weather packets the latest 10 day(s).
| Time | Temp. | Humidity | Pressure | Rain* | Wind** | Luminosity | Snow |
|---|---|---|---|---|---|---|---|
| 1777619745 | 12.78° C | 73% | 1425.7 hPa | 0 mm | - | - | - |
| 1777619625 | 12.78° C | 73% | 1425.5 hPa | 0 mm | - | - | - |
| 1777619505 | 12.78° C | 73% | 1425.4 hPa | 0 mm | - | - | - |
| 1777619339 | 12.78° C | 74% | 1425.1 hPa | 0 mm | - | - | - |
| 1777619265 | 12.78° C | 74% | 1425.1 hPa | 0 mm | - | - | - |
| 1777619145 | 12.22° C | 74% | 1425 hPa | 0 mm | - | - | - |
| 1777612905 | 10° C | 93% | 1418.9 hPa | 0 mm | - | - | - |
| 1777612665 | 9.44° C | 93% | 1418.5 hPa | 0 mm | - | - | - |
| 1777612425 | 9.44° C | 93% | 1418.2 hPa | 0 mm | - | - | - |
| 1777612305 | 9.44° C | 93% | 1417.9 hPa | 0 mm | - | - | - |
| 1777612065 | 9.44° C | 93% | 1417.4 hPa | 0 mm | - | - | - |
| 1777611945 | 8.89° C | 93% | 1417.2 hPa | 0 mm | - | - | - |
| 1777611705 | 8.89° C | 93% | 1416.3 hPa | 0 mm | - | - | - |
| 1777611585 | 8.89° C | 93% | 1416.3 hPa | 0 mm | - | - | - |
| 1777580745 | 6.67° C | 92% | 1415 hPa | 0 mm | - | - | - |
| 1777580385 | 6.67° C | 92% | 1415.1 hPa | 0 mm | - | - | - |
| 1777580145 | 6.67° C | 92% | 1415.3 hPa | 0 mm | - | - | - |
| 1777578946 | 6.67° C | 91% | 1415.3 hPa | 0 mm | - | - | - |
| 1777578225 | 7.22° C | 91% | 1415.6 hPa | 0 mm | - | - | - |
| 1777577745 | 7.22° C | 91% | 1412.5 hPa | 0 mm | - | - | - |
| 1777577625 | 7.22° C | 91% | 1412.5 hPa | 0 mm | - | - | - |
| 1777577025 | 7.22° C | 91% | 1412.9 hPa | 0 mm | - | - | - |
| 1777576785 | 7.22° C | 91% | 1413.2 hPa | 0 mm | - | - | - |
| 1777572226 | 7.78° C | 91% | 1414 hPa | 0 mm | - | - | - |
| 1777563113 | 8.89° C | 86% | 1416.7 hPa | 0 mm | - | - | - |
* Rain latest hour (hover to see other rain measurements)
** Current wind speed in m/s (hover to see current wind gust speed)